EGGW

London Luton Airport

Airport
ICAO code
EGGW
IATA Code
LTN
Summary
ICAO Region
EUR
ICAO Territory
Location

Luton, Bedfordshire,

Serving
Luton
Elevation
526 ft
Coordinates
51° 52' 31" N , 0° 22' 10" W
KCC
Metar
Observation
EGGW 312020Z AUTO 25010KT 9999 OVC042 06/01 Q1024
Station
Luton Airport
Date/Time
2023-01-31 20:20:00
Wind direction
250°
Wind speed
10 kts
Lowest cloud amount
overcast
Temperature
6°C
Dew point
1°C
Humidity
70%
QNH
1024 hPa
Weather condition
n/a

Description

International airport with scheduled and business traffic.

Climatology

Temperate Marine climate/Oceanic climate (Köppen climate classification Cfb). Moderately cool summer and comparatively warm winter with a temperature range of only 14°C. Prevailing south-westerly winds.

Runways

Designator Length Width Surface Rops
8/26 2160 46 ASP Yes/Yes

Airport map

Aerial View

SKYbrary Partners:

Safety knowledge contributed by: